Regional Weather Roundup
Issued by NWS Goodland, KS

Home | Current Version | Previous Version | Graphics & Text | Print | Product List | Glossary On
Versions: 1 2 3 4 5 6 7 8 9 10 11 12 13 14 15 16 17 18 19 20 21 22 23 24 25 26 27 28 29 30 31 32 33 34 35 36 37 38 39 40 41 42 43 44 45 46 47 48 49 50
000
ASUS43 KGLD 250808
RWRGLD

GOODLAND FORECAST AREA HOURLY WEATHER ROUNDUP
NATIONAL WEATHER SERVICE GOODLAND KS
200 AM MDT WED MAY 25 2016

...OFFICIAL OBSERVATIONS...

CITY           SKY/WX    TMP DP  RH WIND       PRES   REMARKS
GOODLAND KS    CLOUDY    58  57  97 SE10      29.76F
HILL CITY KS   CLOUDY    63  55  75 SE16      29.73F
IMPERIAL NEB   CLOUDY    59  55  87 N16       29.82F
MCCOOK NEB     CLOUDY    59  56  89 E10       29.77F
AKRON CO       CLOUDY    54  52  93 NE10      29.85R
BURLINGTON CO  FOG       50  48  93 SW3       29.80S VSB 1/4
LIMON CO       CLEAR     45  43  93 N6        29.89R
$$

...UNOFFICIAL OBSERVATIONS...

CITY           SKY/WX    TMP DP  RH WIND       PRES   REMARKS
COLBY KS       CLOUDY    61  61 100 SE8       29.77F
GOVE KS          N/A     64  32  30 MISG        N/A
LENORA KS        N/A     61  32  33 MISG        N/A
NORTON KS      CLOUDY    61  50  67 NE7       29.80R
SHARON SPRINGS   N/A     57  55  92 S7          N/A
TRIBUNE KS     CLEAR     59  55  88 SW7       29.79S
KIT CARSON CO    N/A     50  47  88 CALM        N/A
YUMA CO          N/A     55  53  94 NE9         N/A
$$



USA.gov is the U.S. government's official web portal to all federal, state and local government web resources and services.